TimeHST,TemperatureF,Dew PointF,Humidity,Sea Level PressureIn,VisibilityMPH,Wind Direction,Wind SpeedMPH,Gust SpeedMPH,PrecipitationIn,Events,Conditions,WindDirDegrees,DateUTC
12:43 AM,73.4,66.2,78,29.97,10.0,Calm,Calm,-,N/A,,Partly Cloudy,0,2013-07-08 10:43:00
12:53 AM,73.0,66.0,79,29.99,10.0,Calm,Calm,-,N/A,,Partly Cloudy,0,2013-07-08 10:53:00
1:53 AM,72.0,64.9,78,29.97,10.0,Calm,Calm,-,N/A,,Partly Cloudy,0,2013-07-08 11:53:00
2:53 AM,71.1,64.9,81,29.96,10.0,Calm,Calm,-,N/A,,Partly Cloudy,0,2013-07-08 12:53:00
3:53 AM,70.0,64.9,84,29.96,10.0,ENE,3.5,-,N/A,,Clear,70,2013-07-08 13:53:00
4:53 AM,69.1,64.0,84,29.96,10.0,Calm,Calm,-,N/A,,Clear,0,2013-07-08 14:53:00
5:53 AM,70.0,64.9,84,29.97,10.0,ENE,3.5,-,N/A,,Clear,70,2013-07-08 15:53:00
6:53 AM,73.9,66.0,76,29.99,10.0,Calm,Calm,-,N/A,,Scattered Clouds,0,2013-07-08 16:53:00
7:53 AM,78.1,68.0,71,30.00,10.0,Calm,Calm,-,N/A,,Scattered Clouds,0,2013-07-08 17:53:00
8:53 AM,80.1,68.0,67,30.01,10.0,ESE,3.5,-,N/A,,Scattered Clouds,110,2013-07-08 18:53:00
9:53 AM,82.9,66.9,58,30.01,10.0,SE,8.1,-,N/A,,Partly Cloudy,130,2013-07-08 19:53:00
10:53 AM,84.0,70.0,63,30.01,10.0,SE,13.8,-,N/A,,Clear,140,2013-07-08 20:53:00
11:53 AM,84.0,70.0,63,30.01,10.0,ESE,11.5,19.6,N/A,,Clear,120,2013-07-08 21:53:00
12:53 PM,84.0,70.0,63,30.00,10.0,ESE,11.5,21.9,N/A,,Clear,120,2013-07-08 22:53:00
1:53 PM,84.9,71.1,63,30.00,10.0,SE,9.2,17.3,N/A,,Scattered Clouds,130,2013-07-08 23:53:00
2:53 PM,84.0,70.0,63,29.99,10.0,SE,13.8,-,N/A,,Mostly Cloudy,140,2013-07-09 00:53:00
3:53 PM,82.0,70.0,67,29.99,10.0,SE,9.2,-,N/A,,Overcast,130,2013-07-09 01:53:00
4:53 PM,82.0,70.0,67,29.99,10.0,ESE,8.1,-,N/A,,Mostly Cloudy,120,2013-07-09 02:53:00
5:53 PM,82.9,66.0,56,29.99,10.0,East,4.6,-,N/A,,Overcast,90,2013-07-09 03:53:00
6:53 PM,82.0,66.9,60,30.01,10.0,Variable,4.6,-,N/A,,Overcast,0,2013-07-09 04:53:00
7:53 PM,79.0,66.0,64,30.04,10.0,Calm,Calm,-,N/A,,Mostly Cloudy,0,2013-07-09 05:53:00
8:53 PM,77.0,66.0,69,30.06,10.0,Calm,Calm,-,N/A,,Scattered Clouds,0,2013-07-09 06:53:00
9:50 PM,77.0,66.2,69,30.05,10.0,Variable,3.5,-,N/A,,Partly Cloudy,0,2013-07-09 07:50:00
9:53 PM,77.0,68.0,74,30.07,10.0,ENE,3.5,-,N/A,,Clear,70,2013-07-09 07:53:00
10:20 PM,75.2,66.2,73,30.05,10.0,Calm,Calm,-,N/A,,Partly Cloudy,0,2013-07-09 08:20:00
10:53 PM,75.0,66.9,76,30.08,10.0,Calm,Calm,-,N/A,,Scattered Clouds,0,2013-07-09 08:53:00
11:53 PM,75.0,66.9,76,30.07,10.0,Calm,Calm,-,N/A,,Clear,0,2013-07-09 09:53:00